STARLINK-4630, 53680

Orbit data source: Space-Track

STARLINK-4630, 53680 is a payload satellite owned by SpaceX/Seattle (US) in SSO that was launched on Wed, 31 Aug 2022 UTC via an FALCON 9 launch vehicle from the Air Force Western Test Range (AFWTR). Payload-class satellites include a variety of spacecraft equipped with specific instruments for various scientific and technological missions. These include communications satellites like Starlink; space stations such as the ISS; scientific satellites like the Hubble; Earth observation satellites from companies like Planet Labs, Umbra, and HawkEye 360; GPS; miniature CubeSats for education and research; and military/defense satellites.

Loading next visibility...
Identifier
53680, 2022-105AJ
Orbit
SSO
Country
Flag of USUS
Related business
Manufacturer
SpaceX/Seattle
Mission
Operational Commercial Communications
Bus & Motor
STARLINK, Unknown motor
Mass
300 kg wet, ~290 kg dry
Launch date (UTC)
2022-08-31 (4 years ago)
Launch vehicle
FALCON 9
Launch site
Air Force Western Test Range (AFWTR)
Object type
Payload
Rocket body
Debris
Shape & HBR
Box + 1 Pan, 10.1 m
Radar Cross Section
13.562 m², Large (>1 m²)

Expand to show TLE details & history
Last TLE update: 2 days ago

TLE from 2 days ago
0 STARLINK-4630
1 53680U 22105AJ  26171.23132310  .00000771  00000-0  57385-4 0  9991
2 53680  97.3429  51.1959 0002084  66.6357 293.5089 15.05647259208735
Epoch: 2026-06-20T05:33Z
TLE epoch observation values (Epoch: 2026-06-20T05:33:06.315Z)
Latitude
-0.0001°
Longitude
59.47069°
Altitude
552.016 km
Speed
7.586 km/s
True Right ascension
03h 24m 47s
True Declination
0° 00' 00"
Sunlit
Object was in daylight at epoch
Visualization orbit readout
Latitude
Unknown
Longitude
Unknown
Altitude
Unknown
Speed
Unknown
Apparent Right ascension
Unknown
Apparent Declination
Unknown
Sunlit
N/A
Visualization observer readout
Local Sidereal Time
21:38:23
Azimuth
Unknown
Elevation
Unknown
Doppler factor
Unknown
Orbital elements
Apogee altitude
547.945 km
Perigee altitude
545.059 km
Semi-major axis
6,924.639 km
Eccentricity
0.00021
Inclination
97.3429°
RAAN
51.1959°
Arg. of periapsis
66.6357°
True anomaly
293.487°
Mean anomaly
293.5089°
Eccentric anomaly
293.49795°
Mean motion
3.76658 °/min
Orbital period
95.58 mins
BSTAR
0.000057385
Loading maneuver chart data...
Computing Atmospheric mass density...
Loading historical data...
Loading historical data...
Loading historical data...
Loading historical data...
Loading historical data...
Loading historical data...
Loading historical data...

Documentation

Showing up to 5 results
|